Satellite: NCUBE2
Catalog number: 28897
Epoch time:      07279.24138019
Element set:     369
Inclination:      098.1178 deg
RA of node:       173.8008 deg
Eccentricity:    0.0017813
Arg of perigee:   124.6559 deg
Mean anomaly:     235.6350 deg
Mean motion:   14.59754381 rev/day
Decay rate:       1.31e-06 rev/day^2
Epoch rev:            9557
Checksum:              331

Satellite: FCAL
Catalog number: 29667
Epoch time:      07279.31351900
Element set:     380
Inclination:      051.6298 deg
RA of node:       229.8503 deg
Eccentricity:    0.0013839
Arg of perigee:   064.1671 deg
Mean anomaly:     296.0769 deg
Mean motion:   15.92351872 rev/day
Decay rate:     2.7298e-04 rev/day^2
Epoch rev:            4568
Checksum:              337

Satellite: FALCON
Catalog number: 30776
Epoch time:      07278.34298364
Element set:    0162
Inclination:      035.4340 deg
RA of node:       264.8567 deg
Eccentricity:    0.0001796
Arg of perigee:   324.4839 deg
Mean anomaly:     035.5757 deg
Mean motion:   15.02775260 rev/day
Decay rate:       2.93e-06 rev/day^2
Epoch rev:           03163
Checksum:              311

Satellite: MAST
Catalog number: 31126
Epoch time:      07279.23949256
Element set:     150
Inclination:      098.0736 deg
RA of node:       348.4201 deg
Eccentricity:    0.0095447
Arg of perigee:   042.3731 deg
Mean anomaly:     318.4762 deg
Mean motion:   14.53368524 rev/day
Decay rate:       3.43e-06 rev/day^2
Epoch rev:            2498
Checksum:              302

Satellite: CAPE1
Catalog number: 31130
Epoch time:      07278.17459388
Element set:     132
Inclination:      098.0729 deg
RA of node:       346.9935 deg
Eccentricity:    0.0103659
Arg of perigee:   046.7228 deg
Mean anomaly:     314.2550 deg
Mean motion:   14.51889863 rev/day
Decay rate:       1.60e-06 rev/day^2
Epoch rev:            2457
Checksum:              318

/EX





More information about the Keps mailing list